Location: Cudham
(51.3000°N, 0.0667°E)
Time: 23:37:36
(UTC+00:00)

NOSS 3-3 (C) - Pass Details

Date: 15 May 2026
Orbit: 697 x 1516 km, 63.4° (Epoch: 11 January)

Event Time Altitude Azimuth Distance (km) Brightness Sun altitude
Rises 20:28:50 0° 209° (SSW) 3,162 6.6 -6.4°
Reaches altitude 10° 20:31:03 10° 206° (SSW) 2,301 5.8 -6.6°
Maximum altitude 20:36:13 63° 126° (SE) 955 3.7 -7.2°
Drops below altitude 10° 20:42:27 10° 48° (NE) 2,759 6.3 -7.9°
Sets 20:45:20 0° 45° (NE) 3,845 7.1 -8.2°
